EZS97SJ LSGG-EBBR

Flight info

Callsign EZS97SJ
Flight time 0h 56m
Altitude 30000
Route ARBOS DCT PENDU DCT EPL DCT ROUSY DCT BATTY
Aircraft A320/M-SDE2E3FGHIJ1RWXYZ/LB1

Departure

Time 2026-05-07 20:32
Airport Geneva International Airport (LSGG)

Arrival

Time 2026-05-07 21:28
Airport Brussels Airport (EBBR)
Time Latitude Longitude Altitude Speed Heading
2026-05-07 19:45 46.23103 6.10666 1393 ft 0 kts 135°
2026-05-07 20:15 46.23103 6.10665 1393 ft 2 kts 135°
2026-05-07 20:15 46.23122 6.10643 1404 ft 4 kts 159°
2026-05-07 20:15 46.23146 6.10639 1404 ft 4 kts 202°
2026-05-07 20:16 46.23161 6.10652 1398 ft 0 kts 225°
2026-05-07 20:22 46.23160 6.10650 1398 ft 2 kts 225°
2026-05-07 20:22 46.23141 6.10621 1398 ft 5 kts 225°
2026-05-07 20:23 46.23116 6.10585 1400 ft 6 kts 225°
2026-05-07 20:23 46.23077 6.10525 1401 ft 10 kts 234°
2026-05-07 20:23 46.23111 6.10431 1397 ft 12 kts 316°
2026-05-07 20:23 46.23167 6.10342 1397 ft 12 kts 294°
2026-05-07 20:24 46.23140 6.10254 1401 ft 9 kts 231°
2026-05-07 20:24 46.23103 6.10198 1397 ft 7 kts 224°
2026-05-07 20:24 46.23072 6.10153 1397 ft 6 kts 226°
2026-05-07 20:24 46.23043 6.10109 1400 ft 8 kts 225°
2026-05-07 20:25 46.23005 6.10055 1396 ft 8 kts 225°
2026-05-07 20:25 46.22953 6.09979 1399 ft 13 kts 225°
2026-05-07 20:25 46.22891 6.09891 1402 ft 12 kts 224°
2026-05-07 20:25 46.22837 6.09815 1400 ft 10 kts 224°
2026-05-07 20:26 46.22790 6.09749 1398 ft 9 kts 224°
2026-05-07 20:26 46.22741 6.09674 1395 ft 14 kts 226°
2026-05-07 20:26 46.22648 6.09544 1400 ft 21 kts 223°
2026-05-07 20:26 46.22563 6.09381 1405 ft 18 kts 250°
2026-05-07 20:27 46.22519 6.09273 1407 ft 9 kts 205°
2026-05-07 20:27 46.22493 6.09248 1410 ft 0 kts 239°
2026-05-07 20:27 46.22493 6.09241 1410 ft 2 kts 261°
2026-05-07 20:27 46.22514 6.09205 1417 ft 0 kts 317°
2026-05-07 20:29 46.22523 6.09192 1412 ft 5 kts 317°
2026-05-07 20:29 46.22554 6.09166 1414 ft 3 kts 343°
2026-05-07 20:29 46.22571 6.09160 1414 ft 1 kts 346°
2026-05-07 20:29 46.22576 6.09158 1415 ft 3 kts 346°
2026-05-07 20:30 46.22611 6.09155 1416 ft 8 kts 11°
2026-05-07 20:30 46.22651 6.09199 1422 ft 6 kts 47°
2026-05-07 20:30 46.22675 6.09235 1417 ft 4 kts 46°
2026-05-07 20:30 46.22690 6.09258 1417 ft 2 kts 46°
2026-05-07 20:31 46.22696 6.09267 1417 ft 0 kts 46°
2026-05-07 20:31 46.22702 6.09276 1418 ft 8 kts 46°
2026-05-07 20:31 46.22927 6.09605 1414 ft 82 kts 46°
2026-05-07 20:31 46.23476 6.10411 1385 ft 141 kts 45°
2026-05-07 20:32 46.24256 6.11583 1532 ft 172 kts 47°
2026-05-07 20:32 46.25085 6.12829 2231 ft 172 kts 45°
2026-05-07 20:32 46.25940 6.14088 2767 ft 184 kts 45°
2026-05-07 20:32 46.26892 6.15483 3022 ft 206 kts 46°
2026-05-07 20:33 46.27956 6.17039 3335 ft 230 kts 46°
2026-05-07 20:33 46.29135 6.18769 3783 ft 251 kts 46°
2026-05-07 20:33 46.30382 6.20599 4555 ft 259 kts 46°
2026-05-07 20:33 46.31661 6.22471 5373 ft 265 kts 46°
2026-05-07 20:34 46.32978 6.24398 6125 ft 274 kts 46°
2026-05-07 20:34 46.34335 6.26385 6863 ft 281 kts 46°
2026-05-07 20:34 46.35784 6.28319 7620 ft 287 kts 32°
2026-05-07 20:34 46.37680 6.29248 8354 ft 292 kts
2026-05-07 20:35 46.39728 6.29204 8872 ft 297 kts 356°
2026-05-07 20:35 46.41771 6.29119 8996 ft 297 kts 356°
2026-05-07 20:35 46.43833 6.29050 9020 ft 297 kts 357°
2026-05-07 20:35 46.45906 6.28996 9206 ft 301 kts 357°
2026-05-07 20:36 46.48004 6.28951 10085 ft 302 kts 356°
2026-05-07 20:36 46.50166 6.28907 10489 ft 322 kts 357°
2026-05-07 20:36 46.52476 6.28859 10857 ft 339 kts 357°
2026-05-07 20:36 46.54860 6.28813 11534 ft 344 kts 357°
2026-05-07 20:37 46.57264 6.28766 12311 ft 347 kts 357°
2026-05-07 20:37 46.59690 6.28715 13081 ft 350 kts 357°
2026-05-07 20:37 46.62132 6.28663 13840 ft 352 kts 358°
2026-05-07 20:37 46.64587 6.28565 14493 ft 354 kts 353°
2026-05-07 20:38 46.67008 6.27888 15118 ft 354 kts 341°
2026-05-07 20:38 46.69284 6.26523 15757 ft 355 kts 329°
2026-05-07 20:38 46.71443 6.24768 16398 ft 357 kts 328°
2026-05-07 20:38 46.73588 6.23019 17043 ft 359 kts 328°
2026-05-07 20:39 46.75779 6.21236 17677 ft 362 kts 328°
2026-05-07 20:39 46.77985 6.19437 18297 ft 365 kts 328°
2026-05-07 20:39 46.80205 6.17620 18845 ft 367 kts 328°
2026-05-07 20:39 46.82438 6.15787 19399 ft 370 kts 328°
2026-05-07 20:40 46.84688 6.13944 19930 ft 372 kts 328°
2026-05-07 20:40 46.86952 6.12087 20458 ft 375 kts 328°
2026-05-07 20:40 46.89238 6.10209 20953 ft 378 kts 328°
2026-05-07 20:40 46.91540 6.08315 21456 ft 381 kts 328°
2026-05-07 20:41 46.93861 6.06408 21948 ft 384 kts 328°
2026-05-07 20:41 46.96234 6.04566 22436 ft 388 kts 334°
2026-05-07 20:41 46.98806 6.03281 22916 ft 394 kts 344°
2026-05-07 20:41 47.01539 6.02712 23386 ft 400 kts 355°
2026-05-07 20:42 47.04338 6.02741 23847 ft 403 kts 358°
2026-05-07 20:42 47.07152 6.02807 24245 ft 406 kts 358°
2026-05-07 20:42 47.09981 6.02859 24634 ft 408 kts 358°
2026-05-07 20:42 47.12829 6.02905 25011 ft 410 kts 358°
2026-05-07 20:43 47.15692 6.02945 25386 ft 413 kts 357°
2026-05-07 20:43 47.18582 6.02985 25755 ft 415 kts 357°
2026-05-07 20:43 47.21480 6.03028 26131 ft 418 kts 357°
2026-05-07 20:43 47.24399 6.03072 26505 ft 420 kts 357°
2026-05-07 20:44 47.27328 6.03123 26888 ft 422 kts 357°
2026-05-07 20:44 47.30271 6.03179 27241 ft 424 kts 357°
2026-05-07 20:44 47.33192 6.03234 27581 ft 427 kts 357°
2026-05-07 20:44 47.36170 6.03288 27926 ft 429 kts 357°
2026-05-07 20:45 47.39164 6.03358 28264 ft 432 kts 358°
2026-05-07 20:45 47.42171 6.03442 28590 ft 434 kts 358°
2026-05-07 20:45 47.45197 6.03531 28941 ft 436 kts 358°
2026-05-07 20:45 47.48242 6.03621 29288 ft 438 kts 358°
2026-05-07 20:46 47.51299 6.03706 29615 ft 440 kts 357°
2026-05-07 20:46 47.54370 6.03789 29924 ft 443 kts 357°
2026-05-07 20:46 47.57449 6.03876 30038 ft 439 kts 358°
2026-05-07 20:46 47.60451 6.03966 30045 ft 424 kts 357°
2026-05-07 20:47 47.63379 6.04049 30045 ft 418 kts 357°
2026-05-07 20:47 47.69154 6.04199 30050 ft 414 kts 357°
2026-05-07 20:48 47.74880 6.04353 30055 ft 414 kts 357°
2026-05-07 20:48 47.80635 6.04510 30053 ft 414 kts 357°
2026-05-07 20:49 47.86387 6.04671 30058 ft 414 kts 358°
2026-05-07 20:49 47.92142 6.04828 30054 ft 413 kts 358°
2026-05-07 20:50 47.97901 6.04987 30051 ft 413 kts 358°
2026-05-07 20:50 48.03655 6.05156 30052 ft 413 kts 358°
2026-05-07 20:51 48.09405 6.05316 30066 ft 413 kts 358°
2026-05-07 20:51 48.15112 6.05476 30060 ft 413 kts 358°
2026-05-07 20:52 48.20857 6.05634 30053 ft 412 kts 358°
2026-05-07 20:52 48.26591 6.05791 30052 ft 412 kts 358°
2026-05-07 20:53 48.32332 6.05956 30065 ft 412 kts 358°
2026-05-07 20:53 48.38064 6.06190 30059 ft 412 kts 359°
2026-05-07 20:54 48.43794 6.06489 30051 ft 412 kts 359°
2026-05-07 20:54 48.49522 6.06787 30067 ft 412 kts 359°
2026-05-07 20:55 48.55254 6.07055 30084 ft 411 kts 359°
2026-05-07 20:55 48.60977 6.07325 30079 ft 412 kts 359°
2026-05-07 20:56 48.66669 6.07593 30070 ft 412 kts 359°
2026-05-07 20:56 48.72402 6.07865 30070 ft 412 kts 359°
2026-05-07 20:57 48.78139 6.08138 30068 ft 412 kts 359°
2026-05-07 20:57 48.83873 6.08404 30067 ft 412 kts 359°
2026-05-07 20:58 48.89609 6.08688 30066 ft 412 kts 359°
2026-05-07 20:58 48.95340 6.08965 30076 ft 412 kts 359°
2026-05-07 20:59 49.01069 6.09237 30075 ft 412 kts 359°
2026-05-07 20:59 49.06768 6.09499 30073 ft 412 kts 359°
2026-05-07 21:00 49.12492 6.09784 30065 ft 411 kts 359°
2026-05-07 21:00 49.18214 6.10066 30067 ft 411 kts 359°
2026-05-07 21:01 49.23935 6.10329 30068 ft 411 kts 359°
2026-05-07 21:01 49.29651 6.10607 30057 ft 411 kts 359°
2026-05-07 21:02 49.35374 6.10893 30058 ft 411 kts 359°
2026-05-07 21:02 49.41079 6.11174 30082 ft 410 kts 359°
2026-05-07 21:03 49.46783 6.11435 30075 ft 409 kts 356°
2026-05-07 21:03 49.52394 6.10433 30072 ft 406 kts 349°
2026-05-07 21:04 49.57945 6.09192 30071 ft 406 kts 349°
2026-05-07 21:04 49.63573 6.07952 30079 ft 406 kts 349°
2026-05-07 21:05 49.69128 6.06725 30076 ft 406 kts 349°
2026-05-07 21:05 49.74715 6.05483 30071 ft 405 kts 349°
2026-05-07 21:06 49.80296 6.04227 30067 ft 405 kts 349°
2026-05-07 21:06 49.85874 6.02956 30076 ft 405 kts 349°
2026-05-07 21:07 49.91407 6.01710 29705 ft 394 kts 349°
2026-05-07 21:07 49.94108 6.01109 29299 ft 388 kts 349°
2026-05-07 21:07 49.96758 6.00519 28872 ft 383 kts 349°
2026-05-07 21:07 49.99381 5.99930 28450 ft 378 kts 349°
2026-05-07 21:08 50.01971 5.99340 28037 ft 374 kts 349°
2026-05-07 21:08 50.04533 5.98758 27624 ft 369 kts 349°
2026-05-07 21:08 50.07061 5.98184 27211 ft 366 kts 349°
2026-05-07 21:08 50.09567 5.97612 26794 ft 362 kts 349°
2026-05-07 21:09 50.12053 5.97048 26376 ft 359 kts 349°
2026-05-07 21:09 50.14486 5.96496 25967 ft 357 kts 349°
2026-05-07 21:09 50.16966 5.95933 25531 ft 355 kts 349°
2026-05-07 21:09 50.19369 5.95385 25110 ft 353 kts 349°
2026-05-07 21:10 50.21827 5.94822 24666 ft 352 kts 349°
2026-05-07 21:10 50.24208 5.94274 24229 ft 351 kts 349°
2026-05-07 21:10 50.26619 5.93718 23783 ft 350 kts 349°
2026-05-07 21:10 50.29032 5.93165 23288 ft 350 kts 349°
2026-05-07 21:11 50.31432 5.92619 22848 ft 347 kts 349°
2026-05-07 21:11 50.33818 5.92073 22412 ft 345 kts 349°
2026-05-07 21:11 50.38542 5.90989 21556 ft 341 kts 349°
2026-05-07 21:12 50.40886 5.90449 21134 ft 339 kts 349°
2026-05-07 21:12 50.43218 5.89909 20717 ft 338 kts 349°
2026-05-07 21:12 50.45539 5.89372 20302 ft 336 kts 349°
2026-05-07 21:12 50.47856 5.88836 19891 ft 335 kts 349°
2026-05-07 21:13 50.50160 5.88301 19483 ft 335 kts 349°
2026-05-07 21:13 50.52432 5.87773 19069 ft 334 kts 349°
2026-05-07 21:13 50.54735 5.87242 18664 ft 334 kts 349°
2026-05-07 21:13 50.57035 5.86712 18238 ft 334 kts 350°
2026-05-07 21:14 50.59331 5.86179 17808 ft 333 kts 349°
2026-05-07 21:14 50.61592 5.85493 17406 ft 329 kts 340°
2026-05-07 21:14 50.63665 5.84036 17019 ft 324 kts 326°
2026-05-07 21:14 50.65418 5.81860 16654 ft 319 kts 312°
2026-05-07 21:15 50.66766 5.79116 16288 ft 315 kts 298°
2026-05-07 21:15 50.67767 5.76057 15930 ft 313 kts 295°
2026-05-07 21:15 50.68746 5.73002 15571 ft 312 kts 295°
2026-05-07 21:15 50.69726 5.69955 15217 ft 311 kts 295°
2026-05-07 21:16 50.70704 5.66915 14860 ft 310 kts 295°
2026-05-07 21:16 50.71677 5.63889 14504 ft 309 kts 295°
2026-05-07 21:16 50.72648 5.60864 14176 ft 308 kts 295°
2026-05-07 21:16 50.73613 5.57847 13795 ft 308 kts 295°
2026-05-07 21:17 50.74575 5.54833 13461 ft 306 kts 295°
2026-05-07 21:17 50.75525 5.51852 13193 ft 302 kts 295°
2026-05-07 21:17 50.76451 5.48945 12931 ft 300 kts 295°
2026-05-07 21:17 50.77382 5.46028 12673 ft 295 kts 295°
2026-05-07 21:18 50.78300 5.43135 12296 ft 295 kts 295°
2026-05-07 21:18 50.79220 5.40223 11880 ft 296 kts 295°
2026-05-07 21:18 50.80137 5.37321 11506 ft 295 kts 295°
2026-05-07 21:18 50.81055 5.34417 11133 ft 295 kts 295°
2026-05-07 21:19 50.81663 5.32501 10882 ft 295 kts 296°
2026-05-07 21:19 50.82581 5.29605 10507 ft 294 kts 296°
2026-05-07 21:19 50.83494 5.26722 10162 ft 292 kts 296°
2026-05-07 21:19 50.84405 5.23845 9799 ft 290 kts 296°
2026-05-07 21:20 50.85308 5.20985 9400 ft 289 kts 296°
2026-05-07 21:20 50.86203 5.18138 8989 ft 288 kts 296°
2026-05-07 21:20 50.87089 5.15317 8579 ft 287 kts 296°
2026-05-07 21:20 50.88031 5.12542 8181 ft 286 kts 302°
2026-05-07 21:21 50.89092 5.09903 7814 ft 283 kts 302°
2026-05-07 21:21 50.90148 5.07279 7450 ft 281 kts 302°
2026-05-07 21:21 50.91202 5.04658 7042 ft 280 kts 302°
2026-05-07 21:21 50.92250 5.02056 6612 ft 280 kts 302°
2026-05-07 21:22 50.93287 4.99480 6277 ft 276 kts 302°
2026-05-07 21:22 50.94320 4.96910 5803 ft 276 kts 302°
2026-05-07 21:22 50.95361 4.94315 5315 ft 279 kts 302°
2026-05-07 21:22 50.96372 4.91786 5244 ft 264 kts 302°
2026-05-07 21:23 50.97329 4.89390 5144 ft 251 kts 301°
2026-05-07 21:23 50.98008 4.86926 5037 ft 239 kts 284°
2026-05-07 21:23 50.98255 4.84297 4519 ft 247 kts 275°
2026-05-07 21:23 50.98421 4.81530 4069 ft 252 kts 275°
2026-05-07 21:24 50.98581 4.78804 3825 ft 242 kts 275°
2026-05-07 21:24 50.98551 4.76247 3577 ft 226 kts 256°
2026-05-07 21:24 50.98064 4.73948 3293 ft 214 kts 245°
2026-05-07 21:24 50.97463 4.71831 3015 ft 207 kts 244°
2026-05-07 21:25 50.96860 4.69779 2761 ft 204 kts 244°
2026-05-07 21:25 50.96288 4.67770 2531 ft 194 kts 245°
2026-05-07 21:25 50.95750 4.65874 2259 ft 184 kts 244°
2026-05-07 21:25 50.95230 4.64080 2017 ft 175 kts 244°
2026-05-07 21:26 50.94740 4.62371 1785 ft 167 kts 244°
2026-05-07 21:26 50.94270 4.60735 1576 ft 161 kts 244°
2026-05-07 21:26 50.93811 4.59136 1371 ft 159 kts 244°
2026-05-07 21:26 50.93351 4.57549 1150 ft 158 kts 244°
2026-05-07 21:27 50.92897 4.55978 949 ft 156 kts 245°
2026-05-07 21:27 50.92448 4.54411 740 ft 155 kts 245°
2026-05-07 21:27 50.92002 4.52860 534 ft 154 kts 245°
2026-05-07 21:27 50.91557 4.51326 334 ft 153 kts 245°
2026-05-07 21:28 50.91115 4.49803 162 ft 152 kts 245°
2026-05-07 21:28 50.90730 4.48478 119 ft 96 kts 245°
2026-05-07 21:28 50.90578 4.47950 119 ft 20 kts 245°
2026-05-07 21:28 50.90503 4.47759 122 ft 21 kts 229°
2026-05-07 21:29 50.90408 4.47624 122 ft 9 kts 216°
2026-05-07 21:29 50.90374 4.47587 121 ft 6 kts 214°
2026-05-07 21:29 50.90315 4.47593 119 ft 9 kts 128°
2026-05-07 21:29 50.90324 4.47678 117 ft 8 kts 51°
2026-05-07 21:30 50.90333 4.47704 116 ft 2 kts 66°
2026-05-07 21:30 50.90351 4.47771 118 ft 12 kts 66°
2026-05-07 21:30 50.90384 4.47885 119 ft 11 kts 65°
2026-05-07 21:30 50.90404 4.48006 119 ft 12 kts 109°
2026-05-07 21:31 50.90351 4.48029 121 ft 8 kts 211°
2026-05-07 21:31 50.90323 4.47960 119 ft 7 kts 243°
2026-05-07 21:31 50.90304 4.47898 117 ft 6 kts 247°
2026-05-07 21:31 50.90287 4.47851 118 ft 4 kts 221°
2026-05-07 21:32 50.90263 4.47850 119 ft 3 kts 167°
2026-05-07 21:32 50.90247 4.47860 118 ft 3 kts 157°
2026-05-07 21:32 50.90230 4.47872 120 ft 2 kts 156°
2026-05-07 21:32 50.90218 4.47881 118 ft 2 kts 155°
2026-05-07 21:33 50.90214 4.47883 118 ft 0 kts 155°